sat.trackr.live / text

‹ back to catalog

BEIDOU-3 M1 (C19)

NORAD 43001 · 2017-069A

PAYLOAD ACTIVE UNKNOWN

§ Identity

Operator
Country
PRC
Launch date
2017-11-05
Launch site
XICLF
Launch vehicle
Mass (kg)
RCS (m²)

Purposes: nav

External: N2YO · Heavens-Above · Gunter

§ Orbital elements

Epoch: 2026-05-23T23:16:47.866944Z

Period
773.23 min
Inclination
56.6723°
Eccentricity
0.0011366
Mean motion
1.86231088 rev/d
Perigee alt
21,496.3 km
Apogee alt
21,559.8 km
Semi-major
27,906.2 km
B*
0.0000e+0
RAAN
63.8816°
Arg perigee
323.2032°
Mean anomaly
36.7137°
Rev number
5,815

§ Raw data

BEIDOU-3 M1 (C19)1 43001U 17069A   26143.96999846 -.00000064  00000+0  00000+0 0  99962 43001  56.6723  63.8816 0011366 323.2032  36.7137  1.86231088 58156

JSON: /api/v1/satellites/43001 · /tle

For live sub-satellite position, see the globe view (requires WebGL).

§ Visibility from observer

Set your observer location to see the next 7 days of passes ≥ 10°. The values pass through the URL so the page stays shareable.

No JS? Fill the form by hand. The geolocation button needs JavaScript.